Regional Weather Roundup
Issued by NWS Midland/Odessa, TX

Skip options and go directly to product.
Home | Oldest Version | Previous Version | Current Version | All | Text Only | Save Text | Print | Product List | Glossary On

Skip product version selection by date and time.   
219
ASUS44 KMAF 230710
RWRMAF
MIDLAND AREA WEATHER ROUNDUP
NATIONAL WEATHER SERVICE MIDLAND TX
200 AM CDT WED APR 23 2014

...IN SOUTHWEST TEXAS AND SOUTHEAST NEW MEXICO...

CITY           SKY/WX    TMP DP  RH WIND       PRES   REMARKS
ALPINE         CLEAR     68  47  47 S9        30.02R
ANDREWS        FAIR      67  44  43 SE16G23   29.91F
ARTESIA        PTCLDY    64  45  48 S8        29.87S
BIG SPRING     CLEAR     69  45  41 SE16      29.93S
CARLSBAD       PTCLDY    69  44  40 SE6       29.85F
DRYDEN           N/A     79  52  38 SE16G22   29.89S
FORT STOCKTON  CLEAR     72  49  44 SE16      29.89F
GUAD PASS      MOCLDY    67  41  38 S13G21    29.99F
HOBBS          CLEAR     64  41  42 SE13      29.92S
MARFA          CLEAR     64  45  48 S7        30.02R
MIDLAND AIRPK  CLEAR     70  46  42 SE12G20   29.92S
MIDLAND INTL   CLEAR     68  47  46 SE14      29.91F
ODESSA           N/A    N/A N/A N/A MISG      29.91F
PECOS          CLEAR     63  51  65 E6        29.85F
PRESIDIO       FAIR      78  47  33 NE8       29.85F
SEMINOLE       CLEAR     65  41  41 SE10      29.93S
SNYDER         CLEAR     69  48  46 SE15      29.93F
WINK           CLEAR     71  45  39 SE13      29.85F
$$
...OTHER STATIONS IN TEXAS...

CITY           SKY/WX    TMP DP  RH WIND       PRES   REMARKS
ABILENE        CLEAR     65  49  56 S14       29.93F
AMARILLO       CLEAR     64  38  38 S18       29.90F
AUSTIN         CLEAR     59  57  93 CALM      29.94F
BROWNSVILLE    CLEAR     68  67  96 S6        29.93F
CORPUS CHRISTI PTCLDY    69  66  90 SE6       29.93F
DALLAS FTW     CLEAR     67  56  67 SE3       29.93F
DEL RIO        CLEAR     75  53  46 E10       29.87S
EL PASO        MOCLDY    78  24  13 SW16      29.85R
HOUSTON INT    CLEAR     70  67  90 CALM      29.95S
LUBBOCK        PTCLDY    65  41  41 S17       29.92S
SAN ANGELO     CLEAR     68  50  52 SE8       29.93F
SAN ANTONIO    CLEAR     69  60  73 SE5       29.94F
WACO           CLEAR     61  56  83 S3        29.94F
WICHITA FALLS  NOT AVBL
$$
...OTHER LOCATIONS IN NEW MEXICO...

CITY           SKY/WX    TMP DP  RH WIND       PRES   REMARKS
ALAMAGORDO     MOCLDY    73  36  25 S16       29.84F
ALBUQUERQUE    MOCLDY    67  29  24 S13       29.86S
CANNON AFB     CLEAR     62  39  42 S16       29.91S
CLOVIS         CLEAR     61  39  44 S16       29.94S
HOLLOMAN AFB   MOCLDY    73  38  27 SE15      29.82F
ROSWELL        MOCLDY    66  43  43 S12       29.87R
RUIDOSO        PTCLDY    59  36  41 S10       30.02F
SANTA FE       MOCLDY    58  30  34 SE10      29.89F
TRUTH OR CONSE PTCLDY    65  26  23 SW5       29.85S
TUCUMCARI      PTCLDY    66  40  38 S22G29    29.84S
$$

USA.gov is the U.S. government's official web portal to all federal, state and local government web resources and services.